Location: Newark
(52.4787°S, 179.0532°W)
Time: 23:42:21
(UTC+00:00)

Transit 2A Rocket - Pass Details

Date: 26 November 2019
Orbit: 594 x 909 km, 66.7° (Epoch: 09 December)

Event Time Altitude Azimuth Distance (km) Brightness Sun altitude
Rises 20:08:34 0° 328° (NNW) 3,358 8.2 38.4°
Reaches altitude 10° 20:10:56 10° 329° (NNW) 2,471 7.6 38.7°
Maximum altitude 20:16:43 79° 54° (NE) 913 6.4 39.5°
Drops below altitude 10° 20:22:52 10° 139° (SE) 2,620 8.1 40.4°
Sets 20:25:27 0° 140° (SE) 3,574 8.7 40.8°
